Precipitable_Water
0.24 0.24 0.24 0.24 0.24 0.22 0.22 0.24 0.24 0.24 0.24 0.24 0.24 0.26 0.26 0.26 0.28 0.28 0.30 0.30 0.30 0.30 0.30 0.30 0.30 0.30 0.32 0.32 0.32 0.32 0.32 0.34 0.34 0.34 0.34 0.36 0.36 0.36 0.36 0.36 0.36 0.36 0.36 0.38 0.38 0.38 0.36 0.38 0.38 0.38 0.38 0.38 0.38 0.38 0.40 0.40 0.42 0.42 0.42 0.42 0.42 0.44 0.46 0.48 0.50 0.50 0.52 0.52 0.54 0.56 0.56 0.56 0.56 0.56 0.56 0.56 0.56 0.56 0.54 0.54 0.56 0.56 0.58 0.56 0.56 0.56
0.22 0.24 0.24 0.24 0.24 0.22 0.22 0.24 0.24 0.26 0.24 0.24 0.26 0.28 0.28 0.28 0.28 0.28 0.30 0.30 0.30 0.30 0.32 0.32 0.32 0.32 0.32 0.32 0.32 0.32 0.34 0.34 0.36 0.36 0.36 0.38 0.38 0.38 0.38 0.38 0.40 0.38 0.38 0.40 0.40 0.40 0.38 0.40 0.40 0.40 0.40 0.40 0.40 0.40 0.40 0.40 0.40 0.40 0.42 0.42 0.42 0.42 0.44 0.46 0.46 0.48 0.50 0.50 0.52 0.54 0.56 0.54 0.56 0.56 0.56 0.56 0.54 0.54 0.54 0.54 0.54 0.56 0.56 0.54 0.54 0.54
0.22 0.22 0.22 0.24 0.24 0.22 0.22 0.24 0.26 0.26 0.26 0.26 0.26 0.28 0.28 0.28 0.28 0.28 0.30 0.30 0.30 0.32 0.32 0.32 0.32 0.32 0.34 0.34 0.34 0.34 0.34 0.36 0.36 0.38 0.38 0.38 0.40 0.40 0.40 0.40 0.40 0.40 0.40 0.42 0.42 0.42 0.40 0.42 0.42 0.42 0.42 0.42 0.42 0.42 0.42 0.42 0.42 0.42 0.44 0.42 0.44 0.44 0.44 0.44 0.46 0.48 0.48 0.50 0.52 0.52 0.54 0.56 0.56 0.56 0.56 0.54 0.54 0.54 0.54 0.54 0.54 0.54 0.54 0.54 0.52 0.52
0.22 0.22 0.22 0.24 0.24 0.24 0.24 0.26 0.26 0.28 0.28 0.28 0.28 0.28 0.28 0.28 0.28 0.28 0.30 0.30 0.30 0.32 0.32 0.32 0.32 0.34 0.34 0.34 0.34 0.36 0.36 0.38 0.38 0.38 0.38 0.40 0.40 0.40 0.40 0.42 0.42 0.42 0.42 0.42 0.42 0.42 0.42 0.44 0.44 0.44 0.44 0.44 0.44 0.44 0.46 0.44 0.44 0.44 0.46 0.46 0.46 0.46 0.46 0.46 0.46 0.48 0.48 0.50 0.52 0.52 0.54 0.56 0.56 0.56 0.56 0.56 0.54 0.54 0.54 0.54 0.54 0.56 0.54 0.54 0.52 0.52
0.22 0.22 0.24 0.24 0.24 0.24 0.26 0.26 0.28 0.28 0.28 0.28 0.28 0.28 0.28 0.28 0.28 0.28 0.28 0.30 0.30 0.30 0.32 0.32 0.34 0.34 0.34 0.34 0.36 0.36 0.36 0.38 0.38 0.38 0.38 0.40 0.40 0.40 0.40 0.42 0.42 0.42 0.42 0.42 0.42 0.42 0.44 0.44 0.44 0.44 0.44 0.46 0.46 0.46 0.46 0.48 0.48 0.48 0.48 0.48 0.48 0.48 0.50 0.48 0.50 0.50 0.52 0.52 0.54 0.54 0.56 0.56 0.58 0.56 0.56 0.58 0.56 0.56 0.58 0.56 0.58 0.58 0.58 0.56 0.54 0.52
0.22 0.24 0.26 0.26 0.26 0.26 0.26 0.28 0.28 0.28 0.28 0.28 0.28 0.28 0.28 0.28 0.28 0.30 0.28 0.28 0.30 0.30 0.30 0.32 0.32 0.34 0.34 0.36 0.36 0.36 0.38 0.38 0.38 0.38 0.40 0.40 0.40 0.40 0.40 0.40 0.40 0.42 0.42 0.42 0.42 0.42 0.42 0.42 0.44 0.44 0.44 0.44 0.46 0.46 0.46 0.48 0.48 0.48 0.48 0.48 0.50 0.50 0.50 0.50 0.50 0.52 0.52 0.54 0.54 0.56 0.56 0.56 0.58 0.58 0.58 0.58 0.58 0.58 0.58 0.58 0.60 0.60 0.60 0.58 0.56 0.54
0.22 0.24 0.26 0.26 0.26 0.26 0.28 0.28 0.28 0.28 0.28 0.28 0.28 0.28 0.30 0.30 0.30 0.30 0.30 0.30 0.30 0.30 0.30 0.32 0.32 0.34 0.34 0.36 0.36 0.36 0.38 0.38 0.38 0.38 0.38 0.38 0.38 0.38 0.40 0.40 0.40 0.40 0.40 0.40 0.40 0.42 0.42 0.42 0.42 0.44 0.44 0.44 0.44 0.46 0.46 0.46 0.48 0.48 0.48 0.48 0.48 0.48 0.48 0.50 0.50 0.50 0.50 0.52 0.54 0.54 0.54 0.54 0.56 0.56 0.58 0.56 0.58 0.58 0.58 0.58 0.58 0.58 0.58 0.58 0.56 0.54
0.24 0.24 0.26 0.26 0.26 0.28 0.28 0.28 0.28 0.30 0.30 0.28 0.28 0.30 0.30 0.30 0.30 0.32 0.32 0.32 0.32 0.32 0.32 0.32 0.32 0.32 0.34 0.34 0.36 0.36 0.36 0.38 0.38 0.38 0.38 0.38 0.38 0.38 0.38 0.38 0.38 0.40 0.40 0.40 0.40 0.40 0.42 0.42 0.42 0.42 0.44 0.44 0.44 0.46 0.46 0.46 0.46 0.46 0.48 0.48 0.48 0.48 0.48 0.48 0.48 0.48 0.50 0.50 0.52 0.52 0.52 0.54 0.54 0.54 0.56 0.56 0.56 0.56 0.54 0.56 0.56 0.56 0.54 0.54 0.54 0.52
0.24 0.24 0.26 0.26 0.26 0.26 0.26 0.26 0.28 0.30 0.32 0.30 0.30 0.30 0.30 0.30 0.30 0.32 0.32 0.34 0.34 0.34 0.34 0.32 0.32 0.32 0.34 0.34 0.36 0.36 0.36 0.36 0.36 0.36 0.36 0.38 0.38 0.38 0.38 0.40 0.40 0.40 0.40 0.42 0.42 0.42 0.42 0.42 0.44 0.44 0.44 0.44 0.46 0.46 0.46 0.46 0.46 0.48 0.48 0.48 0.48 0.48 0.48 0.48 0.48 0.50 0.50 0.50 0.50 0.52 0.52 0.52 0.54 0.54 0.54 0.54 0.54 0.54 0.54 0.54 0.54 0.54 0.52 0.52 0.52 0.50
0.24 0.24 0.26 0.28 0.28 0.28 0.26 0.28 0.28 0.30 0.32 0.32 0.32 0.32 0.32 0.30 0.32 0.32 0.32 0.32 0.34 0.34 0.36 0.34 0.34 0.32 0.34 0.34 0.34 0.36 0.36 0.36 0.36 0.38 0.38 0.38 0.38 0.38 0.40 0.40 0.42 0.42 0.42 0.42 0.42 0.42 0.44 0.44 0.44 0.44 0.44 0.46 0.46 0.46 0.46 0.48 0.48 0.48 0.48 0.48 0.48 0.48 0.48 0.48 0.48 0.50 0.50 0.50 0.50 0.52 0.52 0.52 0.52 0.54 0.54 0.54 0.54 0.54 0.54 0.54 0.54 0.52 0.52 0.52 0.50 0.50
0.24 0.26 0.26 0.28 0.28 0.28 0.28 0.28 0.30 0.32 0.34 0.34 0.34 0.34 0.34 0.34 0.34 0.34 0.32 0.32 0.34 0.34 0.34 0.36 0.34 0.34 0.34 0.34 0.34 0.36 0.36 0.36 0.36 0.36 0.38 0.40 0.40 0.40 0.42 0.42 0.42 0.42 0.42 0.42 0.44 0.44 0.44 0.44 0.44 0.44 0.44 0.46 0.46 0.46 0.46 0.46 0.48 0.48 0.48 0.48 0.48 0.48 0.48 0.48 0.48 0.48 0.50 0.50 0.50 0.50 0.50 0.52 0.52 0.54 0.54 0.54 0.54 0.54 0.54 0.52 0.52 0.52 0.50 0.50 0.48 0.48
0.26 0.28 0.28 0.28 0.28 0.28 0.30 0.30 0.32 0.32 0.34 0.34 0.32 0.32 0.34 0.34 0.36 0.34 0.32 0.32 0.32 0.32 0.34 0.36 0.36 0.36 0.36 0.36 0.36 0.36 0.36 0.36 0.36 0.36 0.38 0.38 0.40 0.40 0.42 0.42 0.42 0.42 0.42 0.42 0.42 0.44 0.44 0.44 0.44 0.44 0.44 0.46 0.46 0.46 0.46 0.46 0.46 0.46 0.46 0.46 0.46 0.46 0.46 0.48 0.48 0.48 0.48 0.48 0.48 0.48 0.50 0.50 0.52 0.52 0.52 0.52 0.52 0.54 0.52 0.52 0.52 0.50 0.48 0.48 0.48 0.48
0.28 0.28 0.28 0.28 0.28 0.28 0.28 0.30 0.30 0.30 0.32 0.32 0.30 0.30 0.32 0.34 0.36 0.36 0.34 0.32 0.32 0.32 0.34 0.34 0.36 0.36 0.36 0.38 0.38 0.36 0.36 0.36 0.36 0.38 0.38 0.38 0.40 0.40 0.42 0.42 0.42 0.42 0.42 0.42 0.42 0.42 0.44 0.44 0.44 0.44 0.44 0.44 0.44 0.44 0.44 0.44 0.44 0.44 0.44 0.46 0.46 0.46 0.46 0.46 0.46 0.46 0.46 0.46 0.46 0.48 0.48 0.50 0.50 0.50 0.52 0.50 0.50 0.52 0.52 0.50 0.50 0.48 0.48 0.48 0.46 0.46
0.28 0.28 0.28 0.28 0.28 0.28 0.30 0.30 0.30 0.30 0.30 0.32 0.32 0.32 0.34 0.34 0.36 0.36 0.34 0.34 0.34 0.34 0.36 0.34 0.34 0.36 0.36 0.38 0.38 0.40 0.38 0.38 0.38 0.38 0.38 0.40 0.42 0.42 0.42 0.42 0.42 0.42 0.42 0.42 0.42 0.42 0.44 0.44 0.44 0.44 0.44 0.44 0.44 0.44 0.44 0.44 0.44 0.44 0.44 0.44 0.44 0.44 0.44 0.44 0.46 0.46 0.46 0.46 0.46 0.46 0.46 0.48 0.48 0.48 0.48 0.48 0.48 0.48 0.50 0.48 0.48 0.48 0.46 0.46 0.46 0.46
0.28 0.28 0.28 0.28 0.28 0.28 0.30 0.30 0.30 0.30 0.32 0.34 0.34 0.36 0.36 0.36 0.36 0.36 0.34 0.34 0.34 0.34 0.34 0.34 0.34 0.34 0.36 0.38 0.40 0.40 0.40 0.40 0.40 0.40 0.38 0.40 0.40 0.42 0.44 0.44 0.44 0.44 0.44 0.44 0.44 0.44 0.44 0.46 0.46 0.44 0.44 0.46 0.44 0.44 0.44 0.44 0.44 0.44 0.44 0.44 0.44 0.44 0.44 0.44 0.46 0.46 0.46 0.46 0.46 0.46 0.46 0.46 0.46 0.46 0.48 0.46 0.46 0.46 0.46 0.46 0.46 0.46 0.46 0.46 0.46 0.46
0.30 0.30 0.28 0.28 0.28 0.30 0.32 0.32 0.32 0.32 0.34 0.36 0.36 0.36 0.36 0.34 0.34 0.36 0.34 0.34 0.34 0.34 0.34 0.32 0.32 0.32 0.34 0.38 0.40 0.42 0.42 0.42 0.40 0.40 0.38 0.40 0.42 0.44 0.46 0.44 0.44 0.44 0.44 0.44 0.44 0.44 0.46 0.46 0.46 0.46 0.46 0.46 0.46 0.46 0.46 0.46 0.46 0.46 0.46 0.46 0.44 0.44 0.46 0.46 0.44 0.46 0.46 0.46 0.46 0.46 0.46 0.46 0.46 0.46 0.46 0.46 0.46 0.46 0.46 0.46 0.46 0.46 0.46 0.46 0.46 0.46
0.30 0.30 0.30 0.30 0.30 0.30 0.32 0.34 0.34 0.34 0.36 0.36 0.36 0.36 0.36 0.34 0.36 0.36 0.36 0.34 0.34 0.34 0.32 0.32 0.30 0.30 0.30 0.32 0.36 0.40 0.42 0.42 0.42 0.40 0.40 0.40 0.42 0.44 0.46 0.46 0.44 0.42 0.44 0.44 0.44 0.44 0.46 0.46 0.46 0.46 0.48 0.48 0.48 0.48 0.48 0.48 0.46 0.46 0.46 0.46 0.46 0.46 0.46 0.46 0.46 0.46 0.46 0.46 0.46 0.46 0.46 0.46 0.46 0.46 0.46 0.46 0.46 0.46 0.46 0.46 0.46 0.46 0.46 0.46 0.46 0.46
0.30 0.32 0.30 0.30 0.30 0.32 0.34 0.34 0.36 0.36 0.36 0.38 0.38 0.38 0.38 0.38 0.38 0.38 0.36 0.34 0.34 0.34 0.32 0.32 0.32 0.30 0.30 0.32 0.34 0.40 0.44 0.44 0.44 0.42 0.42 0.40 0.42 0.44 0.48 0.46 0.44 0.44 0.44 0.44 0.44 0.46 0.46 0.46 0.46 0.46 0.46 0.46 0.48 0.48 0.48 0.48 0.48 0.48 0.48 0.48 0.48 0.48 0.48 0.48 0.48 0.48 0.48 0.46 0.46 0.46 0.46 0.46 0.46 0.46 0.46 0.46 0.46 0.46 0.46 0.46 0.46 0.46 0.46 0.46 0.46 0.46
0.32 0.32 0.32 0.32 0.32 0.32 0.36 0.36 0.36 0.38 0.38 0.38 0.38 0.38 0.38 0.38 0.38 0.38 0.36 0.36 0.36 0.34 0.34 0.32 0.32 0.32 0.34 0.34 0.36 0.42 0.44 0.46 0.44 0.42 0.42 0.40 0.42 0.44 0.46 0.46 0.46 0.44 0.44 0.44 0.44 0.44 0.46 0.46 0.46 0.46 0.46 0.48 0.48 0.48 0.48 0.48 0.48 0.48 0.48 0.48 0.48 0.48 0.48 0.48 0.48 0.48 0.48 0.48 0.48 0.48 0.48 0.46 0.46 0.46 0.46 0.46 0.46 0.46 0.46 0.46 0.46 0.46 0.46 0.46 0.46 0.46
0.32 0.32 0.34 0.34 0.34 0.34 0.34 0.36 0.38 0.38 0.38 0.40 0.40 0.38 0.38 0.38 0.38 0.36 0.36 0.36 0.36 0.36 0.36 0.34 0.34 0.34 0.34 0.36 0.38 0.44 0.46 0.46 0.44 0.42 0.40 0.40 0.42 0.44 0.46 0.46 0.44 0.44 0.42 0.44 0.44 0.46 0.46 0.46 0.46 0.46 0.46 0.48 0.48 0.48 0.48 0.48 0.48 0.48 0.48 0.48 0.48 0.48 0.48 0.48 0.48 0.48 0.48 0.48 0.48 0.48 0.48 0.48 0.48 0.48 0.48 0.46 0.46 0.46 0.46 0.46 0.46 0.46 0.46 0.46 0.46 0.46
0.32 0.32 0.34 0.34 0.34 0.34 0.36 0.38 0.40 0.42 0.42 0.42 0.42 0.40 0.38 0.36 0.36 0.36 0.36 0.36 0.36 0.36 0.36 0.36 0.34 0.36 0.38 0.38 0.38 0.42 0.44 0.46 0.46 0.44 0.42 0.40 0.42 0.44 0.46 0.44 0.44 0.42 0.42 0.44 0.44 0.46 0.46 0.46 0.46 0.46 0.46 0.48 0.48 0.48 0.48 0.46 0.46 0.46 0.46 0.46 0.48 0.48 0.48 0.48 0.48 0.48 0.48 0.48 0.48 0.48 0.48 0.48 0.48 0.48 0.48 0.48 0.48 0.48 0.48 0.46 0.46 0.46 0.46 0.46 0.46 0.46
0.32 0.34 0.34 0.36 0.36 0.38 0.40 0.42 0.42 0.44 0.44 0.42 0.40 0.38 0.38 0.36 0.36 0.36 0.36 0.38 0.38 0.38 0.36 0.36 0.36 0.38 0.40 0.40 0.42 0.44 0.48 0.48 0.46 0.44 0.42 0.38 0.38 0.40 0.42 0.44 0.44 0.44 0.42 0.42 0.44 0.44 0.46 0.46 0.46 0.46 0.48 0.48 0.48 0.48 0.46 0.46 0.46 0.46 0.46 0.48 0.48 0.48 0.48 0.48 0.48 0.48 0.48 0.48 0.48 0.48 0.48 0.48 0.48 0.48 0.48 0.48 0.48 0.48 0.48 0.46 0.46 0.46 0.46 0.46 0.46 0.46
0.34 0.36 0.36 0.38 0.38 0.40 0.44 0.44 0.44 0.44 0.44 0.42 0.40 0.40 0.38 0.38 0.38 0.40 0.40 0.40 0.40 0.40 0.40 0.38 0.38 0.40 0.40 0.42 0.44 0.46 0.48 0.48 0.48 0.46 0.42 0.38 0.38 0.40 0.44 0.44 0.44 0.42 0.42 0.42 0.44 0.44 0.46 0.46 0.46 0.46 0.48 0.48 0.48 0.48 0.48 0.48 0.48 0.48 0.48 0.48 0.48 0.48 0.48 0.48 0.48 0.48 0.46 0.48 0.48 0.48 0.48 0.48 0.48 0.48 0.48 0.48 0.48 0.48 0.46 0.46 0.46 0.46 0.46 0.46 0.46 0.46
0.38 0.38 0.40 0.40 0.42 0.42 0.46 0.44 0.44 0.44 0.44 0.44 0.44 0.44 0.42 0.42 0.42 0.44 0.44 0.42 0.42 0.42 0.40 0.40 0.40 0.38 0.34 0.36 0.38 0.40 0.40 0.44 0.46 0.48 0.44 0.38 0.38 0.40 0.42 0.42 0.42 0.40 0.40 0.42 0.44 0.46 0.46 0.46 0.46 0.48 0.48 0.48 0.48 0.48 0.48 0.48 0.48 0.48 0.48 0.46 0.46 0.46 0.46 0.46 0.46 0.46 0.46 0.46 0.46 0.48 0.48 0.48 0.48 0.48 0.48 0.48 0.48 0.48 0.48 0.46 0.46 0.46 0.46 0.46 0.46 0.46
0.40 0.42 0.42 0.44 0.44 0.46 0.48 0.46 0.46 0.44 0.44 0.46 0.46 0.46 0.46 0.46 0.46 0.46 0.46 0.44 0.42 0.38 0.38 0.36 0.34 0.34 0.30 0.32 0.34 0.36 0.40 0.42 0.44 0.44 0.42 0.38 0.36 0.38 0.40 0.40 0.40 0.40 0.40 0.42 0.44 0.46 0.46 0.46 0.46 0.46 0.48 0.48 0.48 0.48 0.48 0.48 0.48 0.48 0.46 0.46 0.46 0.46 0.46 0.46 0.46 0.46 0.46 0.46 0.46 0.46 0.46 0.48 0.48 0.48 0.48 0.48 0.48 0.48 0.48 0.46 0.46 0.46 0.46 0.46 0.46 0.46
0.42 0.42 0.44 0.46 0.48 0.48 0.48 0.48 0.48 0.48 0.48 0.48 0.48 0.46 0.46 0.46 0.44 0.40 0.40 0.40 0.36 0.34 0.32 0.30 0.30 0.30 0.30 0.32 0.34 0.36 0.38 0.42 0.42 0.42 0.40 0.36 0.36 0.36 0.38 0.40 0.40 0.40 0.40 0.42 0.44 0.46 0.46 0.44 0.44 0.46 0.46 0.46 0.46 0.48 0.48 0.48 0.48 0.46 0.46 0.46 0.46 0.46 0.46 0.46 0.46 0.46 0.46 0.46 0.46 0.46 0.46 0.46 0.46 0.48 0.48 0.48 0.48 0.48 0.48 0.48 0.46 0.46 0.46 0.46 0.46 0.46
0.40 0.42 0.44 0.46 0.48 0.48 0.48 0.48 0.48 0.48 0.48 0.44 0.44 0.44 0.42 0.42 0.38 0.34 0.32 0.32 0.32 0.32 0.32 0.30 0.28 0.28 0.30 0.30 0.32 0.34 0.36 0.40 0.42 0.42 0.40 0.38 0.36 0.36 0.36 0.40 0.40 0.40 0.40 0.42 0.44 0.44 0.44 0.44 0.44 0.46 0.46 0.46 0.46 0.48 0.48 0.46 0.46 0.46 0.46 0.46 0.46 0.46 0.46 0.46 0.46 0.46 0.46 0.46 0.46 0.46 0.46 0.46 0.46 0.48 0.48 0.48 0.48 0.48 0.46 0.46 0.46 0.46 0.46 0.46 0.46 0.46
0.40 0.42 0.44 0.46 0.46 0.48 0.48 0.48 0.48 0.46 0.46 0.40 0.40 0.38 0.38 0.38 0.34 0.30 0.30 0.32 0.32 0.32 0.32 0.30 0.28 0.28 0.30 0.30 0.32 0.34 0.36 0.38 0.40 0.42 0.42 0.40 0.38 0.36 0.36 0.38 0.40 0.42 0.40 0.42 0.42 0.44 0.44 0.44 0.44 0.44 0.46 0.46 0.46 0.46 0.46 0.46 0.46 0.46 0.46 0.46 0.44 0.44 0.44 0.44 0.44 0.44 0.44 0.44 0.44 0.44 0.44 0.46 0.46 0.46 0.46 0.48 0.46 0.46 0.46 0.46 0.46 0.46 0.46 0.46 0.46 0.46
0.40 0.42 0.44 0.46 0.46 0.46 0.46 0.46 0.44 0.44 0.42 0.38 0.36 0.36 0.36 0.36 0.34 0.32 0.32 0.34 0.34 0.32 0.30 0.30 0.30 0.30 0.30 0.32 0.34 0.34 0.36 0.36 0.40 0.42 0.42 0.38 0.36 0.36 0.38 0.40 0.42 0.42 0.42 0.40 0.40 0.42 0.44 0.42 0.44 0.44 0.44 0.44 0.46 0.46 0.46 0.46 0.46 0.46 0.46 0.44 0.44 0.44 0.44 0.44 0.44 0.44 0.44 0.44 0.44 0.44 0.44 0.44 0.44 0.46 0.46 0.46 0.46 0.46 0.46 0.46 0.44 0.44 0.46 0.46 0.44 0.44
0.38 0.42 0.44 0.44 0.44 0.42 0.42 0.40 0.40 0.38 0.38 0.36 0.36 0.36 0.36 0.36 0.34 0.34 0.34 0.34 0.34 0.32 0.32 0.30 0.30 0.32 0.32 0.32 0.32 0.32 0.32 0.36 0.38 0.42 0.42 0.40 0.38 0.36 0.38 0.40 0.40 0.42 0.42 0.40 0.38 0.38 0.40 0.42 0.42 0.44 0.44 0.44 0.44 0.44 0.44 0.44 0.44 0.44 0.44 0.44 0.44 0.44 0.44 0.42 0.42 0.42 0.42 0.42 0.42 0.42 0.42 0.44 0.44 0.44 0.44 0.44 0.44 0.44 0.44 0.44 0.44 0.44 0.44 0.44 0.44 0.44
0.38 0.38 0.40 0.42 0.40 0.40 0.38 0.38 0.38 0.36 0.34 0.34 0.34 0.36 0.36 0.36 0.36 0.36 0.36 0.36 0.36 0.34 0.32 0.32 0.32 0.32 0.34 0.32 0.30 0.30 0.32 0.36 0.40 0.44 0.44 0.42 0.38 0.38 0.38 0.38 0.40 0.40 0.42 0.42 0.38 0.36 0.36 0.36 0.40 0.42 0.42 0.42 0.42 0.42 0.44 0.44 0.44 0.44 0.44 0.42 0.42 0.42 0.42 0.42 0.42 0.42 0.42 0.42 0.42 0.42 0.42 0.42 0.42 0.44 0.44 0.44 0.44 0.44 0.44 0.44 0.44 0.44 0.44 0.44 0.42 0.42
0.38 0.38 0.38 0.38 0.38 0.38 0.38 0.38 0.36 0.36 0.34 0.34 0.34 0.34 0.36 0.36 0.36 0.36 0.38 0.38 0.38 0.36 0.36 0.34 0.34 0.34 0.36 0.34 0.32 0.32 0.36 0.40 0.42 0.46 0.46 0.42 0.40 0.40 0.40 0.40 0.40 0.42 0.44 0.42 0.40 0.36 0.34 0.34 0.36 0.40 0.42 0.40 0.42 0.42 0.42 0.42 0.42 0.42 0.42 0.42 0.42 0.42 0.42 0.42 0.42 0.42 0.40 0.40 0.40 0.40 0.40 0.40 0.42 0.42 0.42 0.42 0.44 0.44 0.44 0.44 0.44 0.44 0.44 0.42 0.42 0.42
0.38 0.38 0.38 0.38 0.36 0.36 0.36 0.36 0.34 0.34 0.34 0.34 0.34 0.34 0.34 0.36 0.36 0.38 0.38 0.38 0.40 0.40 0.38 0.38 0.36 0.36 0.36 0.36 0.36 0.36 0.38 0.40 0.42 0.46 0.46 0.44 0.42 0.40 0.40 0.40 0.40 0.42 0.44 0.42 0.40 0.38 0.36 0.36 0.38 0.38 0.40 0.40 0.40 0.42 0.42 0.42 0.42 0.42 0.42 0.40 0.40 0.40 0.40 0.40 0.40 0.40 0.40 0.40 0.40 0.40 0.40 0.40 0.40 0.40 0.40 0.42 0.42 0.42 0.42 0.44 0.44 0.44 0.44 0.42 0.42 0.42
0.36 0.36 0.36 0.36 0.36 0.34 0.34 0.34 0.34 0.34 0.34 0.34 0.34 0.34 0.36 0.36 0.38 0.38 0.40 0.40 0.42 0.44 0.42 0.40 0.38 0.38 0.38 0.36 0.36 0.36 0.36 0.40 0.42 0.46 0.48 0.46 0.44 0.42 0.40 0.40 0.40 0.40 0.42 0.40 0.40 0.40 0.38 0.38 0.38 0.38 0.38 0.40 0.40 0.40 0.40 0.42 0.42 0.42 0.42 0.40 0.40 0.40 0.40 0.40 0.40 0.40 0.40 0.38 0.38 0.38 0.38 0.38 0.38 0.40 0.40 0.40 0.40 0.42 0.42 0.42 0.44 0.44 0.44 0.44 0.44 0.44
0.34 0.34 0.34 0.34 0.34 0.34 0.34 0.34 0.34 0.34 0.34 0.34 0.34 0.36 0.36 0.38 0.40 0.40 0.42 0.42 0.44 0.44 0.44 0.42 0.40 0.40 0.38 0.36 0.36 0.36 0.38 0.42 0.44 0.46 0.48 0.46 0.44 0.42 0.42 0.40 0.40 0.40 0.40 0.40 0.38 0.38 0.38 0.38 0.38 0.38 0.36 0.38 0.38 0.38 0.40 0.40 0.42 0.42 0.42 0.40 0.40 0.40 0.40 0.40 0.40 0.40 0.38 0.38 0.38 0.38 0.38 0.38 0.38 0.38 0.40 0.40 0.40 0.40 0.42 0.42 0.42 0.44 0.44 0.44 0.44 0.44
0.34 0.34 0.34 0.34 0.32 0.32 0.32 0.32 0.32 0.32 0.32 0.34 0.34 0.36 0.36 0.38 0.40 0.42 0.42 0.44 0.44 0.44 0.42 0.42 0.42 0.42 0.42 0.42 0.40 0.40 0.42 0.44 0.46 0.48 0.48 0.46 0.44 0.42 0.40 0.42 0.42 0.42 0.40 0.38 0.38 0.38 0.36 0.38 0.38 0.36 0.36 0.36 0.36 0.36 0.38 0.40 0.40 0.40 0.40 0.40 0.40 0.40 0.40 0.40 0.40 0.40 0.38 0.38 0.38 0.38 0.38 0.38 0.38 0.38 0.38 0.40 0.40 0.40 0.42 0.42 0.42 0.44 0.44 0.44 0.44 0.46
0.32 0.32 0.32 0.32 0.32 0.32 0.32 0.32 0.32 0.32 0.32 0.34 0.34 0.36 0.36 0.38 0.40 0.42 0.42 0.42 0.44 0.44 0.44 0.44 0.44 0.44 0.44 0.44 0.44 0.44 0.46 0.46 0.48 0.48 0.48 0.48 0.46 0.44 0.42 0.42 0.42 0.42 0.42 0.40 0.40 0.38 0.38 0.36 0.36 0.36 0.36 0.36 0.34 0.34 0.36 0.38 0.38 0.38 0.38 0.40 0.40 0.40 0.40 0.40 0.40 0.40 0.38 0.38 0.38 0.36 0.36 0.38 0.38 0.38 0.38 0.38 0.40 0.40 0.40 0.42 0.42 0.42 0.42 0.44 0.44 0.44
0.32 0.32 0.32 0.32 0.32 0.32 0.32 0.32 0.32 0.32 0.32 0.34 0.34 0.36 0.36 0.40 0.42 0.42 0.44 0.44 0.44 0.44 0.44 0.44 0.44 0.44 0.46 0.46 0.46 0.46 0.48 0.48 0.48 0.48 0.48 0.48 0.46 0.46 0.44 0.42 0.42 0.44 0.42 0.42 0.40 0.40 0.38 0.36 0.34 0.34 0.34 0.34 0.36 0.36 0.36 0.38 0.36 0.36 0.38 0.38 0.40 0.40 0.40 0.40 0.40 0.40 0.38 0.38 0.38 0.38 0.38 0.38 0.38 0.38 0.38 0.38 0.38 0.38 0.38 0.38 0.40 0.40 0.42 0.42 0.44 0.44
0.30 0.30 0.30 0.30 0.32 0.32 0.32 0.32 0.32 0.32 0.34 0.34 0.36 0.36 0.38 0.42 0.42 0.44 0.44 0.44 0.44 0.44 0.42 0.42 0.44 0.44 0.46 0.46 0.48 0.48 0.48 0.48 0.48 0.48 0.48 0.48 0.46 0.46 0.44 0.42 0.42 0.44 0.44 0.44 0.42 0.40 0.38 0.36 0.34 0.34 0.34 0.34 0.34 0.34 0.36 0.36 0.36 0.36 0.36 0.38 0.38 0.38 0.38 0.40 0.40 0.40 0.38 0.38 0.38 0.38 0.36 0.36 0.36 0.36 0.36 0.36 0.38 0.38 0.36 0.38 0.38 0.40 0.40 0.42 0.42 0.44
0.30 0.30 0.30 0.32 0.32 0.32 0.32 0.32 0.32 0.32 0.34 0.34 0.36 0.38 0.38 0.40 0.42 0.42 0.44 0.44 0.42 0.40 0.42 0.42 0.42 0.44 0.44 0.46 0.46 0.46 0.46 0.46 0.46 0.46 0.48 0.46 0.46 0.46 0.46 0.44 0.44 0.44 0.44 0.44 0.42 0.42 0.40 0.38 0.38 0.36 0.36 0.34 0.34 0.34 0.36 0.36 0.36 0.36 0.36 0.36 0.36 0.36 0.38 0.38 0.38 0.38 0.38 0.38 0.38 0.36 0.36 0.36 0.36 0.36 0.36 0.36 0.36 0.36 0.36 0.36 0.38 0.38 0.40 0.40 0.40 0.40
0.30 0.30 0.30 0.32 0.32 0.32 0.32 0.34 0.34 0.34 0.36 0.36 0.38 0.38 0.40 0.40 0.40 0.38 0.38 0.40 0.38 0.38 0.40 0.42 0.42 0.42 0.42 0.42 0.44 0.44 0.44 0.44 0.46 0.46 0.46 0.46 0.46 0.46 0.46 0.46 0.44 0.44 0.44 0.42 0.42 0.42 0.40 0.38 0.38 0.36 0.36 0.36 0.36 0.36 0.36 0.36 0.36 0.36 0.36 0.34 0.34 0.36 0.38 0.38 0.38 0.38 0.38 0.38 0.38 0.38 0.36 0.36 0.36 0.36 0.36 0.36 0.36 0.36 0.36 0.38 0.38 0.38 0.40 0.40 0.40 0.40
0.30 0.30 0.32 0.32 0.32 0.34 0.34 0.34 0.36 0.36 0.38 0.38 0.38 0.38 0.40 0.38 0.36 0.36 0.36 0.36 0.36 0.36 0.38 0.38 0.40 0.38 0.38 0.38 0.40 0.42 0.42 0.44 0.44 0.46 0.46 0.46 0.46 0.46 0.46 0.46 0.44 0.44 0.42 0.42 0.42 0.40 0.40 0.38 0.38 0.38 0.38 0.36 0.36 0.36 0.34 0.36 0.36 0.36 0.36 0.36 0.36 0.36 0.36 0.38 0.38 0.38 0.38 0.38 0.38 0.36 0.36 0.36 0.36 0.36 0.36 0.36 0.36 0.36 0.38 0.38 0.38 0.40 0.40 0.40 0.40 0.42
0.32 0.32 0.32 0.34 0.34 0.34 0.36 0.36 0.36 0.36 0.38 0.38 0.38 0.38 0.38 0.36 0.36 0.34 0.34 0.36 0.36 0.36 0.36 0.36 0.36 0.36 0.34 0.34 0.36 0.38 0.40 0.42 0.44 0.44 0.46 0.46 0.46 0.46 0.46 0.46 0.46 0.46 0.44 0.42 0.40 0.40 0.40 0.40 0.40 0.38 0.38 0.38 0.36 0.36 0.34 0.34 0.36 0.36 0.36 0.36 0.36 0.34 0.34 0.36 0.36 0.38 0.38 0.36 0.36 0.36 0.36 0.36 0.36 0.36 0.36 0.36 0.36 0.36 0.36 0.36 0.38 0.38 0.40 0.40 0.40 0.42
0.32 0.34 0.34 0.34 0.36 0.36 0.36 0.36 0.36 0.36 0.36 0.36 0.36 0.36 0.36 0.36 0.36 0.36 0.36 0.34 0.34 0.34 0.34 0.36 0.36 0.36 0.34 0.34 0.34 0.36 0.38 0.40 0.42 0.44 0.46 0.46 0.46 0.46 0.46 0.46 0.46 0.46 0.44 0.42 0.40 0.38 0.38 0.40 0.38 0.38 0.40 0.38 0.38 0.36 0.34 0.34 0.34 0.36 0.36 0.36 0.36 0.34 0.34 0.34 0.34 0.36 0.36 0.36 0.36 0.36 0.36 0.36 0.36 0.36 0.36 0.34 0.34 0.36 0.36 0.36 0.38 0.38 0.40 0.40 0.42 0.42
0.34 0.34 0.34 0.34 0.34 0.34 0.34 0.34 0.36 0.36 0.36 0.36 0.36 0.36 0.36 0.36 0.36 0.36 0.34 0.34 0.34 0.34 0.34 0.34 0.34 0.34 0.32 0.32 0.34 0.36 0.36 0.38 0.42 0.42 0.44 0.44 0.46 0.46 0.46 0.46 0.46 0.44 0.44 0.42 0.40 0.40 0.38 0.38 0.38 0.38 0.38 0.40 0.38 0.36 0.36 0.34 0.34 0.34 0.36 0.36 0.36 0.36 0.36 0.36 0.36 0.36 0.36 0.36 0.36 0.36 0.36 0.36 0.36 0.36 0.34 0.34 0.34 0.34 0.36 0.34 0.36 0.36 0.38 0.38 0.40 0.42
0.34 0.34 0.34 0.34 0.34 0.34 0.34 0.34 0.36 0.36 0.36 0.36 0.36 0.36 0.36 0.36 0.36 0.36 0.34 0.34 0.34 0.34 0.34 0.34 0.32 0.32 0.30 0.32 0.32 0.34 0.34 0.36 0.38 0.40 0.40 0.40 0.42 0.44 0.46 0.44 0.44 0.44 0.44 0.44 0.44 0.42 0.42 0.40 0.38 0.38 0.38 0.38 0.36 0.36 0.36 0.36 0.34 0.34 0.36 0.36 0.36 0.36 0.36 0.36 0.36 0.36 0.36 0.36 0.36 0.36 0.36 0.36 0.36 0.34 0.34 0.32 0.32 0.32 0.34 0.34 0.36 0.36 0.38 0.38 0.40 0.40
0.34 0.34 0.34 0.34 0.34 0.34 0.34 0.36 0.36 0.34 0.34 0.34 0.34 0.34 0.36 0.36 0.36 0.36 0.36 0.34 0.34 0.32 0.32 0.32 0.32 0.30 0.30 0.30 0.32 0.32 0.32 0.32 0.34 0.36 0.38 0.38 0.40 0.42 0.44 0.44 0.44 0.44 0.44 0.44 0.44 0.42 0.42 0.42 0.40 0.40 0.38 0.36 0.34 0.34 0.36 0.36 0.36 0.34 0.34 0.34 0.34 0.34 0.34 0.34 0.36 0.36 0.36 0.36 0.36 0.36 0.36 0.36 0.34 0.34 0.32 0.32 0.32 0.32 0.34 0.34 0.36 0.36 0.38 0.38 0.38 0.40
0.34 0.34 0.32 0.34 0.34 0.34 0.34 0.34 0.34 0.34 0.34 0.34 0.34 0.34 0.34 0.36 0.34 0.34 0.34 0.34 0.32 0.32 0.32 0.32 0.30 0.30 0.30 0.30 0.32 0.32 0.32 0.34 0.34 0.36 0.36 0.38 0.38 0.40 0.40 0.40 0.42 0.42 0.44 0.44 0.44 0.42 0.42 0.42 0.42 0.40 0.40 0.38 0.36 0.34 0.34 0.34 0.36 0.36 0.36 0.36 0.34 0.34 0.34 0.34 0.36 0.36 0.36 0.36 0.36 0.36 0.36 0.34 0.34 0.32 0.32 0.32 0.32 0.32 0.32 0.32 0.34 0.36 0.36 0.38 0.40 0.40
0.34 0.34 0.34 0.34 0.34 0.34 0.34 0.34 0.34 0.34 0.34 0.34 0.34 0.34 0.34 0.34 0.34 0.34 0.32 0.32 0.32 0.32 0.30 0.30 0.30 0.30 0.30 0.30 0.32 0.32 0.32 0.34 0.34 0.34 0.36 0.36 0.38 0.38 0.38 0.38 0.38 0.40 0.40 0.42 0.42 0.40 0.42 0.42 0.42 0.42 0.42 0.38 0.36 0.36 0.34 0.34 0.36 0.36 0.36 0.36 0.34 0.34 0.34 0.34 0.34 0.36 0.36 0.36 0.36 0.36 0.36 0.36 0.36 0.34 0.34 0.32 0.30 0.30 0.30 0.32 0.32 0.34 0.36 0.38 0.40 0.40
0.34 0.34 0.34 0.34 0.34 0.32 0.32 0.34 0.34 0.34 0.34 0.34 0.34 0.32 0.32 0.32 0.32 0.32 0.32 0.32 0.32 0.30 0.30 0.30 0.30 0.30 0.30 0.30 0.30 0.32 0.32 0.32 0.34 0.34 0.34 0.36 0.36 0.38 0.38 0.38 0.38 0.38 0.38 0.38 0.38 0.38 0.38 0.40 0.40 0.40 0.42 0.40 0.40 0.38 0.36 0.36 0.36 0.36 0.36 0.36 0.36 0.34 0.34 0.34 0.34 0.34 0.36 0.36 0.36 0.36 0.36 0.36 0.36 0.34 0.34 0.32 0.30 0.30 0.30 0.30 0.30 0.32 0.34 0.36 0.38 0.40
0.34 0.34 0.34 0.34 0.34 0.32 0.34 0.34 0.34 0.34 0.34 0.32 0.32 0.32 0.32 0.32 0.32 0.32 0.32 0.30 0.30 0.30 0.30 0.30 0.30 0.30 0.30 0.30 0.32 0.32 0.32 0.34 0.34 0.34 0.34 0.36 0.36 0.38 0.38 0.36 0.36 0.36 0.36 0.36 0.34 0.34 0.34 0.34 0.34 0.34 0.36 0.40 0.42 0.42 0.38 0.36 0.34 0.34 0.34 0.34 0.34 0.34 0.34 0.34 0.34 0.34 0.36 0.36 0.36 0.34 0.34 0.34 0.34 0.34 0.34 0.32 0.30 0.30 0.28 0.28 0.30 0.32 0.34 0.36 0.38 0.38
Wind_Speed
50 51 51 51 52 52 53 53 54 54 55 55 55 55 55 55 55 54 54 53 53 52 51 50 49 48 47 46 45 44 43 42 42 41 41 41 41 41 41 41 41 41 41 42 42 42 42 42 42 42 42 42 42 42 43 43 43 43 43 43 43 43 43 42 42 42 42 42 42 42 42 42 42 42 43 43 44 44 45 45 45 45 46 46 47 47
50 51 51 52 52 53 54 54 54 54 55 55 54 54 53 53 52 52 51 50 50 49 47 46 46 45 43 42 41 41 40 39 39 39 39 39 39 39 39 39 39 39 39 39 40 40 40 40 40 40 40 40 41 41 41 40 40 40 40 40 40 40 40 40 41 40 40 40 40 40 40 40 40 40 41 41 41 42 42 42 42 43 43 44 44 45
51 52 52 53 53 54 55 55 55 54 54 54 53 53 52 51 50 49 48 47 46 45 44 43 42 41 40 39 39 38 38 37 37 37 37 37 37 37 37 38 37 37 37 37 37 38 38 38 38 38 38 38 38 38 38 38 38 38 38 38 38 38 38 39 39 39 39 39 39 39 39 39 39 39 39 39 39 39 40 40 40 40 41 41 41 42
52 53 54 54 54 54 55 55 54 54 53 52 51 51 50 48 47 46 45 44 43 42 41 41 40 39 38 37 37 36 36 36 36 36 36 36 36 36 36 36 36 36 36 36 36 36 36 36 36 36 36 36 36 35 35 35 35 35 36 36 36 37 37 38 38 38 38 39 39 39 38 38 38 38 38 38 38 38 38 39 39 39 39 39 40 40
53 54 55 55 55 54 54 53 53 52 51 50 49 47 46 45 44 43 42 41 40 39 39 38 38 37 37 36 36 36 36 35 35 35 35 35 35 35 35 35 35 35 35 34 34 34 34 34 34 34 34 34 34 34 34 34 34 34 34 35 35 36 36 36 37 37 38 38 38 38 38 38 38 38 37 37 37 38 38 38 38 38 38 39 39 39
54 54 55 54 54 53 53 51 50 49 48 46 45 44 42 41 40 39 38 38 37 37 36 36 36 36 36 36 36 36 36 35 35 35 34 34 34 34 34 34 34 33 33 33 33 33 33 33 33 33 33 33 33 33 33 33 33 34 34 34 34 35 35 36 36 36 37 37 37 37 37 37 37 37 37 37 37 37 37 37 38 38 38 38 38 38
55 55 54 53 53 52 50 49 47 45 43 42 41 40 38 37 36 35 35 35 35 35 35 35 35 35 35 35 35 35 35 35 34 34 33 33 33 32 32 32 32 32 32 32 32 32 31 31 31 32 32 32 32 32 33 33 33 33 34 34 34 34 35 35 35 36 36 37 37 37 37 37 37 37 37 37 37 38 37 37 37 38 38 38 38 38
55 54 53 52 50 49 48 46 43 41 39 38 37 36 35 34 33 32 32 32 32 33 33 33 34 34 34 34 34 34 34 33 33 32 31 31 31 31 31 31 31 30 30 30 30 30 30 30 31 31 31 31 32 32 33 33 33 34 34 34 34 34 35 35 35 36 36 36 37 37 37 37 38 38 38 38 38 38 38 38 38 38 38 38 38 38
54 53 52 50 48 46 45 43 40 37 35 34 34 33 32 32 32 31 31 31 31 31 31 32 32 32 32 32 32 32 32 31 31 30 30 29 29 29 29 29 29 29 29 29 29 29 29 30 30 30 31 31 32 32 33 33 33 34 34 34 34 35 35 35 35 36 36 36 37 37 37 37 38 38 38 38 38 38 38 38 38 39 39 39 38 38
52 50 49 47 45 43 41 39 37 35 33 32 32 31 31 31 31 31 31 30 30 30 30 30 31 31 31 30 30 30 29 29 29 29 28 28 27 27 27 27 27 28 28 28 29 29 29 30 30 30 31 31 31 32 32 33 33 34 34 34 34 34 35 35 35 35 36 36 36 37 37 37 38 38 38 38 38 38 38 38 38 38 39 38 38 38
49 47 46 44 42 40 37 36 34 33 32 31 30 30 30 30 31 31 31 31 30 30 29 29 29 29 29 28 27 27 26 26 26 26 26 26 26 27 27 27 27 28 28 28 29 29 29 30 30 30 30 30 31 31 31 32 32 32 33 33 33 33 34 34 34 35 35 35 36 36 37 37 38 38 38 38 38 38 38 38 38 38 38 38 38 38
46 44 42 40 38 36 34 33 32 31 30 29 29 30 30 30 30 30 31 31 30 30 29 29 28 28 27 26 25 25 24 24 24 24 24 24 25 26 26 26 27 27 28 28 28 28 29 29 29 29 29 30 30 30 30 30 30 31 31 31 32 32 32 33 33 34 34 35 35 36 36 37 37 37 37 37 37 37 37 38 38 38 38 38 38 39
43 41 38 37 35 33 32 31 30 30 29 29 29 30 30 30 30 30 30 30 30 30 29 28 28 27 26 25 24 24 23 23 23 23 24 24 24 25 25 25 26 26 26 26 26 27 27 28 28 28 28 29 29 29 29 29 29 29 29 30 30 30 31 31 31 32 33 33 34 34 35 35 36 36 36 36 36 37 37 37 37 38 38 38 39 39
39 37 35 34 32 31 30 29 29 29 29 29 29 30 30 30 30 30 30 30 29 29 28 28 27 26 25 24 23 23 23 23 23 24 24 24 25 25 25 26 26 26 26 26 26 26 26 27 27 27 27 27 28 28 28 28 28 28 28 29 29 29 29 30 30 31 31 32 32 33 33 34 34 34 35 35 35 36 36 36 37 37 38 38 39 39
35 33 32 31 30 29 29 28 28 28 28 29 29 30 30 30 30 29 29 29 28 28 27 26 26 25 24 23 23 22 23 23 23 24 24 25 25 25 26 26 26 26 26 26 26 26 26 26 26 26 26 27 27 27 27 27 28 28 28 28 28 28 29 29 29 30 30 30 31 31 32 32 32 33 33 34 34 35 35 36 36 37 37 38 38 39
32 31 30 30 29 29 28 28 28 28 29 29 29 29 29 29 29 28 28 27 27 26 25 25 25 24 23 23 22 22 22 23 23 24 25 26 26 26 27 27 27 27 26 26 26 26 26 26 26 26 26 27 27 28 28 28 28 28 28 28 28 28 28 28 29 29 29 29 29 30 30 31 31 32 32 33 33 34 34 35 35 36 37 37 38 38
31 31 30 30 29 29 29 29 29 29 29 29 29 29 29 28 28 27 27 26 26 25 24 24 23 22 22 22 22 22 22 23 24 25 26 27 27 27 27 27 27 27 27 27 27 26 26 26 26 27 27 27 28 28 28 28 28 28 28 28 28 28 28 28 28 28 28 29 29 29 30 30 30 31 31 32 32 33 34 34 35 35 36 36 37 38
31 30 30 30 29 29 29 29 29 29 30 30 30 29 29 28 28 27 26 26 25 25 24 24 23 22 22 23 23 23 23 24 25 26 27 28 28 28 28 27 27 27 27 27 27 27 27 27 27 27 27 28 28 28 28 27 27 27 27 27 27 27 28 28 28 28 28 28 29 29 29 30 30 31 31 31 32 32 33 33 34 34 35 36 36 37
31 30 30 29 29 29 29 29 29 29 30 29 29 29 28 28 27 27 26 26 25 25 25 25 24 24 24 25 26 26 26 26 27 27 28 29 29 29 28 28 28 28 28 28 28 27 27 27 28 28 28 28 28 27 27 27 27 27 26 26 26 27 27 27 27 28 28 28 29 29 29 29 30 30 30 31 31 32 32 32 33 33 34 35 35 36
31 30 29 29 30 30 30 30 29 29 29 29 28 28 28 27 27 27 26 26 26 26 26 26 26 26 26 27 28 28 28 28 28 28 28 29 29 29 28 28 28 28 28 28 28 28 28 28 28 28 28 28 27 27 26 26 26 25 25 25 25 26 26 26 27 27 28 28 28 28 29 29 29 30 30 30 31 31 31 31 32 32 33 33 34 35
30 30 29 29 30 30 30 30 29 29 29 28 28 27 27 27 26 26 26 26 27 27 27 27 27 28 28 29 30 30 29 28 28 28 28 28 28 28 27 27 27 28 28 28 28 28 28 28 28 28 27 27 27 26 26 25 25 24 24 24 25 25 25 26 26 27 27 27 28 28 28 28 29 29 29 30 30 30 30 31 31 31 31 32 32 33
30 30 29 30 30 30 30 30 30 29 28 27 27 26 26 25 26 26 26 27 27 27 28 28 29 29 30 30 31 31 30 29 29 28 28 28 28 28 27 27 27 27 28 28 28 28 28 28 27 27 27 26 26 25 25 24 24 23 23 24 24 24 25 25 26 26 26 27 27 27 28 28 28 29 29 29 29 29 29 29 29 29 30 30 31 31
30 30 30 30 30 30 30 30 29 28 27 27 26 26 26 26 26 27 27 27 27 27 28 29 30 30 31 31 31 31 30 29 29 29 28 28 28 27 26 26 26 27 27 27 28 28 28 27 26 26 25 25 25 24 24 23 23 23 23 23 23 24 24 24 24 25 25 26 26 26 27 27 28 28 28 28 28 28 28 28 28 28 28 28 29 29
31 31 31 31 31 30 30 29 29 28 27 27 27 27 27 27 27 27 27 27 28 28 29 30 30 31 31 31 31 30 29 29 29 29 28 28 28 27 26 26 26 27 27 27 27 27 26 26 25 24 24 24 23 23 23 22 22 22 22 22 23 23 23 23 24 24 24 25 25 26 26 26 27 27 27 27 27 27 27 27 27 27 27 27 27 28
31 31 31 31 31 31 30 29 29 28 28 27 27 27 27 27 27 27 28 28 29 29 30 30 30 30 30 30 30 29 29 28 28 27 27 28 28 27 27 26 26 26 27 26 26 25 25 24 23 22 22 22 22 22 22 21 21 21 21 22 22 22 22 22 23 23 23 24 24 25 25 25 25 26 26 26 26 26 26 25 26 26 26 26 26 27
31 31 32 32 32 32 31 30 30 29 29 28 27 27 27 28 28 28 29 29 30 30 30 30 30 30 30 29 29 28 27 27 27 26 26 27 27 27 27 26 26 26 26 25 24 23 23 22 21 21 20 20 20 21 21 21 21 21 21 21 21 21 21 22 22 22 22 23 23 23 24 24 24 24 25 25 24 24 24 24 25 25 25 25 26 26
33 33 33 33 32 31 31 30 30 29 29 29 29 29 29 29 30 30 30 31 31 31 31 30 30 30 30 29 28 27 26 25 25 25 26 26 26 26 26 26 25 25 25 24 23 22 22 21 20 20 20 20 19 20 20 20 20 20 20 20 21 21 21 21 21 21 21 22 22 22 22 23 23 23 23 23 23 23 23 24 24 24 25 25 25 25
33 32 32 31 30 29 28 28 28 28 28 29 30 30 30 30 30 31 31 31 31 31 31 30 30 30 29 28 27 26 26 25 25 25 25 26 26 26 26 25 25 24 24 24 23 22 21 21 20 20 20 19 19 19 19 20 20 20 20 20 20 20 20 21 21 21 21 21 21 21 21 22 22 22 22 22 22 22 23 23 23 24 24 24 23 24
32 31 30 28 27 26 26 26 27 27 28 29 30 30 30 30 30 30 31 31 30 30 31 31 31 30 29 29 28 27 26 25 25 25 25 25 25 25 25 25 24 24 23 23 22 21 21 20 20 20 20 19 19 19 19 19 20 20 20 20 20 20 20 20 20 20 20 20 21 21 21 21 21 21 22 22 22 22 22 23 23 23 23 23 23 23
30 29 27 26 25 24 25 26 27 28 29 29 30 30 30 29 29 30 30 30 30 30 31 31 31 30 29 28 27 26 24 24 23 23 23 24 24 24 24 24 23 23 22 21 21 20 20 20 20 19 19 19 18 18 18 19 19 19 19 19 19 20 20 20 20 20 20 20 20 20 20 20 21 21 21 21 21 21 22 22 22 22 22 22 22 22
28 27 26 25 25 25 26 27 28 28 29 29 29 29 29 29 29 29 29 29 29 29 30 30 29 29 28 26 24 23 22 22 22 21 22 22 23 23 23 23 23 22 22 21 20 19 19 18 18 18 18 18 18 18 18 18 19 19 19 19 19 19 20 20 20 20 20 20 20 20 20 20 20 20 20 21 21 21 21 21 21 21 21 21 21 21
27 27 27 27 27 27 27 27 28 28 28 28 29 29 29 29 28 28 28 28 28 29 29 29 28 27 26 25 24 23 21 21 21 21 22 22 23 23 22 22 22 22 22 21 21 20 19 18 18 17 17 17 17 18 18 19 19 19 19 19 19 20 20 20 20 20 19 20 20 19 19 19 19 19 20 20 20 20 21 21 21 20 20 20 20 20
26 27 27 27 27 27 27 27 27 28 28 28 28 28 28 28 28 28 27 27 28 28 28 28 27 27 26 25 24 23 23 22 22 22 22 22 22 22 22 22 22 22 22 22 21 21 20 20 19 19 18 18 18 19 19 20 20 20 20 20 20 20 20 20 19 19 19 19 19 19 19 19 19 19 19 19 20 20 20 20 20 20 20 19 19 20
26 26 27 27 27 27 27 28 28 28 28 28 28 28 28 27 27 27 26 26 26 26 26 26 26 25 25 24 23 23 23 23 22 22 22 22 22 22 22 22 22 22 22 21 21 21 21 21 20 20 19 19 19 19 20 20 20 20 20 20 20 20 20 19 19 19 19 19 19 19 19 19 18 18 18 19 19 19 19 19 20 20 20 19 19 19
26 26 26 26 26 27 27 27 27 27 27 27 27 27 27 26 26 25 25 25 25 25 25 25 25 24 24 24 23 23 23 22 22 22 22 22 22 21 21 21 21 21 21 21 21 21 20 20 20 20 19 19 19 19 20 20 20 20 20 20 20 20 20 19 19 19 19 19 19 18 18 18 18 18 18 18 18 18 19 19 19 19 19 19 19 19
24 24 24 25 25 26 26 26 26 26 26 26 26 26 25 25 24 23 23 23 23 23 24 24 24 24 24 24 24 23 23 23 22 22 22 22 22 21 21 21 21 21 21 21 21 21 20 20 20 20 19 19 19 19 19 19 19 19 19 20 20 20 20 20 19 19 19 19 19 18 18 18 17 17 17 17 17 18 18 18 19 19 19 19 19 19
22 23 23 23 24 24 25 25 25 25 25 25 25 24 24 23 22 22 22 22 22 22 23 23 23 24 24 24 24 24 24 23 23 23 22 22 22 22 22 21 21 21 21 21 21 21 21 20 20 19 19 19 19 19 19 19 19 19 19 20 20 20 20 20 20 19 19 19 19 18 18 18 17 17 17 17 17 17 17 18 18 18 18 18 18 18
22 22 22 22 22 23 23 23 24 24 24 24 23 23 22 22 21 21 21 21 21 21 22 22 23 23 23 24 24 24 24 24 23 23 23 22 22 22 22 22 22 21 21 22 21 21 21 20 20 19 19 19 19 19 19 19 19 19 20 20 20 21 21 20 20 19 19 19 19 18 18 18 17 17 16 16 16 16 16 17 17 17 18 17 18 18
21 21 21 22 22 22 22 22 23 23 23 23 22 22 21 21 21 20 20 20 20 21 22 22 22 22 22 23 23 23 23 23 23 23 22 22 22 22 22 22 22 22 22 22 22 21 21 21 20 20 19 19 19 20 20 20 20 20 20 21 21 21 21 20 20 20 19 19 18 18 18 17 17 17 16 16 16 16 16 16 16 16 16 16 16 17
21 21 21 21 21 22 22 22 22 22 22 21 21 20 20 20 20 20 20 20 21 21 22 22 21 21 21 21 22 22 22 22 22 22 22 22 22 22 22 22 22 22 22 22 22 22 21 21 21 21 20 20 20 20 20 20 20 20 21 21 21 21 21 21 20 20 19 19 19 18 18 17 17 17 16 16 16 15 15 15 16 16 16 16 15 15
21 21 21 21 21 21 21 21 21 21 21 20 20 19 19 19 19 20 20 21 21 21 21 21 21 21 21 21 21 21 22 22 22 22 21 21 21 21 21 21 22 22 22 22 22 22 21 21 21 21 21 21 21 21 21 21 21 21 21 21 21 22 21 21 20 20 20 19 19 18 18 17 17 17 17 16 16 16 15 15 15 15 15 15 14 14
20 20 21 21 21 21 21 21 21 20 20 20 19 19 19 19 20 21 21 21 21 21 21 21 21 21 21 21 21 21 22 22 22 22 22 22 21 21 21 21 21 21 21 21 22 22 21 21 22 22 21 21 21 22 22 22 22 22 22 22 22 22 22 21 20 20 20 19 19 18 18 18 17 17 17 17 16 16 15 15 15 15 15 14 14 13
20 20 20 21 21 21 20 20 20 20 20 19 19 19 20 20 21 21 21 21 21 21 21 21 22 22 22 22 22 22 22 22 22 22 22 22 22 22 22 21 21 21 21 21 21 21 21 21 22 22 22 22 22 22 22 22 22 22 22 22 22 22 21 21 20 20 19 19 19 18 18 18 18 18 18 17 17 16 15 15 15 14 14 13 13 13
20 20 20 20 20 20 20 20 20 19 19 19 20 20 20 21 21 21 21 21 22 22 22 22 22 22 23 23 23 23 23 22 22 22 23 23 23 22 22 22 22 22 21 21 21 21 21 22 22 22 22 22 22 22 23 22 22 22 22 22 22 22 21 21 21 20 20 20 19 19 19 18 18 18 18 18 17 16 15 15 14 14 13 13 12 12
20 20 20 20 20 20 20 20 19 19 20 20 20 20 21 21 21 21 22 22 22 22 23 23 23 23 23 23 23 23 23 23 23 23 23 23 23 23 23 23 23 22 22 22 22 22 22 22 22 22 22 22 22 22 22 22 22 22 22 22 22 22 22 22 21 21 20 20 20 19 19 18 18 18 18 18 17 16 15 14 14 13 13 12 12 12
20 20 20 20 20 20 20 20 20 20 20 20 21 21 21 21 22 22 22 23 23 23 23 23 23 23 23 23 23 23 23 23 23 23 23 23 23 23 23 23 23 23 23 23 23 22 22 22 22 22 21 21 22 22 22 21 21 22 22 22 22 22 22 21 21 21 20 20 20 19 19 18 18 18 18 18 17 16 15 14 13 13 12 12 12 11
20 20 20 20 20 20 20 20 20 20 21 21 21 21 22 22 22 22 23 23 23 23 24 23 23 23 23 23 23 23 23 23 23 23 23 23 23 23 23 23 23 23 23 23 23 23 23 22 22 21 21 21 21 21 21 21 21 21 21 21 21 21 21 21 21 20 20 20 19 19 18 18 18 18 18 17 17 16 15 14 13 13 12 12 11 11
20 20 20 20 20 20 20 20 20 21 21 21 21 22 22 22 22 23 23 23 23 23 23 23 23 23 23 23 23 22 22 22 22 22 22 22 22 23 23 23 23 23 23 23 23 23 23 23 22 22 21 21 20 20 20 20 20 21 21 21 21 21 21 20 20 20 20 19 19 19 18 18 18 18 17 17 17 16 15 14 13 12 12 11 11 11
20 20 21 21 21 21 21 20 20 21 21 21 22 22 22 22 23 23 23 23 23 23 22 22 22 22 22 22 22 22 22 21 21 21 21 22 22 22 22 22 22 23 23 23 23 23 23 23 22 22 21 21 21 21 20 20 20 20 20 20 20 20 20 20 20 19 19 19 19 18 18 18 17 17 17 17 17 16 15 14 13 12 11 11 11 10
20 21 21 21 21 21 21 21 21 21 21 22 22 23 23 23 22 22 22 22 22 22 21 21 21 21 20 21 21 21 21 20 20 20 20 21 21 21 22 22 22 22 22 22 22 22 22 22 22 22 22 22 21 21 21 21 21 20 20 20 20 20 20 20 19 19 19 18 18 18 17 17 17 17 17 17 17 16 15 15 14 12 11 11 10 10
21 21 21 21 21 21 21 21 21 22 22 23 23 23 23 23 22 22 22 22 21 21 21 20 20 20 20 20 20 20 20 20 20 20 20 20 20 21 21 21 22 22 22 21 21 21 21 21 21 21 21 22 22 21 21 21 20 20 20 20 19 19 19 19 19 19 18 18 18 17 17 17 17 16 16 16 16 16 15 15 14 13 11 11 10 10
Wind_Direction
294 295 295 295 295 295 294 294 294 294 293 293 293 292 292 292 291 291 290 290 290 289 289 288 288 287 287 286 286 285 284 283 283 282 282 281 280 280 279 278 278 277 276 276 275 275 274 274 274 273 272 272 272 271 271 271 271 270 270 269 269 269 269 270 270 269 269 269 268 268 268 267 267 267 266 266 265 265 265 265 265 265 264 263 263 262
295 295 295 295 295 295 295 295 294 294 294 294 293 293 292 292 291 291 291 290 290 289 289 288 288 287 287 286 285 284 283 283 282 282 281 281 280 280 279 278 278 277 276 276 275 275 274 274 274 273 273 272 272 272 271 271 270 270 269 269 268 269 269 269 269 269 269 269 269 269 268 268 267 267 267 266 266 266 266 266 265 265 264 264 263 263
296 296 295 295 295 294 294 295 294 294 294 293 293 293 292 292 292 291 291 291 290 289 289 288 288 287 287 286 285 284 283 283 282 282 282 281 281 280 279 279 278 277 276 276 275 275 275 274 274 274 273 273 272 272 271 270 270 269 269 269 268 268 268 268 268 269 269 269 269 269 269 268 268 268 267 267 267 267 266 266 266 265 265 264 264 263
296 295 295 295 295 294 294 294 294 294 293 293 293 293 292 292 292 291 291 291 290 289 289 288 287 287 287 286 285 285 284 284 283 283 283 282 282 281 280 279 278 278 277 276 276 276 275 275 275 274 274 273 272 272 271 271 270 270 269 269 269 269 269 268 268 268 268 269 269 269 269 269 268 268 268 268 268 267 267 267 266 266 265 264 264 264
295 295 295 295 294 294 294 294 293 293 293 293 293 293 292 292 292 291 291 290 289 289 288 287 287 286 286 286 285 285 285 284 284 284 283 283 282 281 281 280 279 279 278 278 277 277 276 276 275 275 274 274 273 272 272 271 271 271 271 270 270 270 269 269 269 268 268 268 269 269 268 268 268 268 268 268 268 267 267 267 266 266 265 264 264 263
295 295 295 294 294 293 293 293 293 293 293 292 292 292 292 291 291 291 290 290 289 288 288 287 287 286 285 285 285 285 285 284 284 283 283 282 282 281 281 280 280 279 279 278 278 277 277 276 276 275 275 274 274 273 273 273 273 272 272 272 271 271 270 270 269 269 269 269 269 269 268 268 268 268 267 267 267 267 267 266 266 265 265 264 264 263
295 294 294 294 293 293 293 293 292 292 292 292 291 291 291 291 290 290 290 290 289 289 288 288 287 286 285 285 284 284 284 284 283 283 282 282 281 281 280 280 279 279 278 278 277 277 276 276 276 275 275 275 275 275 275 274 274 274 274 273 273 272 272 271 270 270 269 269 269 269 269 269 269 268 268 268 267 267 267 266 266 266 265 265 264 264
294 294 293 293 293 292 292 292 292 292 291 291 290 290 290 290 290 290 290 290 290 290 289 289 288 287 285 285 284 284 283 283 282 282 282 281 281 281 281 280 279 279 278 277 276 276 275 275 275 275 275 275 275 275 275 275 275 275 275 274 274 273 273 272 271 271 270 270 270 270 270 270 269 269 269 268 268 268 267 267 267 266 266 266 265 265
294 293 293 292 292 292 292 291 291 291 290 289 289 289 290 290 290 290 290 290 291 291 290 290 289 288 287 286 284 284 283 282 282 281 281 281 281 281 281 281 280 279 278 277 277 276 276 276 276 276 276 276 276 275 275 275 275 275 275 274 274 274 273 273 272 271 271 270 270 270 270 270 270 269 269 269 269 268 268 268 267 267 267 266 266 266
293 293 292 292 291 290 290 290 290 290 289 288 288 288 289 290 290 290 290 290 291 291 291 290 289 289 288 287 285 283 282 281 281 281 281 281 281 281 281 281 281 280 279 279 278 277 277 277 276 276 276 276 276 275 275 275 274 274 274 274 273 273 273 272 272 271 271 271 270 270 270 270 270 269 269 269 269 268 268 267 267 267 266 266 266 266
292 292 291 291 290 289 289 288 289 289 289 288 288 288 289 289 289 289 289 289 290 291 291 290 289 289 288 287 286 284 282 281 281 280 280 280 281 282 282 282 282 281 281 280 279 278 277 277 276 276 276 276 276 275 275 274 274 273 273 273 272 272 272 272 271 271 271 271 270 270 270 269 269 269 269 269 268 268 268 267 267 267 266 266 266 266
291 291 290 289 289 289 288 288 288 289 289 288 288 289 289 289 289 289 288 289 289 290 290 290 290 289 288 287 286 284 283 282 281 281 281 281 282 282 283 283 283 282 282 281 279 278 277 276 276 276 277 277 276 276 275 275 274 274 273 273 272 272 272 271 271 271 271 271 270 270 270 269 269 269 269 269 269 268 268 268 267 267 267 267 266 266
290 290 289 288 288 288 288 288 288 289 288 288 288 288 289 289 290 289 288 288 289 289 290 290 289 288 287 286 285 285 284 283 283 283 283 283 284 284 285 285 284 284 283 282 281 279 278 277 277 277 277 277 277 277 276 276 275 274 273 273 272 272 272 272 272 272 272 271 271 270 270 270 269 269 269 269 269 269 268 268 268 268 267 267 267 266
289 289 288 288 287 288 288 288 288 288 288 288 288 288 289 290 290 289 288 288 288 289 289 288 287 287 286 285 284 284 284 284 284 284 285 285 286 286 286 286 286 285 285 284 283 281 280 280 280 279 279 279 278 278 277 276 276 275 274 274 273 273 273 273 273 272 272 272 271 271 270 270 269 269 269 269 269 269 269 269 268 268 268 267 267 267
289 289 288 288 288 288 287 287 287 287 288 289 290 290 291 290 290 289 288 288 288 289 288 287 286 284 284 284 283 283 283 283 284 285 285 286 287 288 288 287 287 286 285 284 284 283 282 281 281 281 280 280 279 279 278 277 277 276 275 275 275 274 274 273 273 273 272 272 271 271 270 270 270 269 269 269 269 269 269 269 269 269 268 268 268 267
289 288 288 287 287 287 287 287 287 288 289 291 291 291 291 290 290 289 289 288 289 289 288 287 285 283 282 282 282 283 283 283 284 285 286 287 288 288 288 287 287 286 286 285 284 284 283 282 281 281 281 281 280 279 279 278 277 277 276 276 276 275 275 274 274 273 273 272 272 271 271 271 270 270 270 270 270 270 270 270 270 269 269 269 269 268
288 287 286 286 286 286 287 287 288 289 290 291 291 290 289 289 289 289 289 289 288 288 286 285 284 283 281 281 282 283 283 284 284 285 286 287 288 289 288 287 286 286 285 285 284 284 283 283 282 282 281 281 281 280 280 279 279 278 278 277 277 277 276 276 275 275 275 274 274 273 273 272 272 271 271 271 271 271 271 271 271 271 270 270 269 269
286 285 285 285 286 286 287 288 288 289 290 290 289 289 288 288 288 288 288 288 287 286 285 283 282 281 280 280 282 283 285 285 286 287 287 287 288 289 288 286 285 285 285 284 284 284 284 284 283 283 283 282 282 282 281 281 280 280 279 279 279 278 278 278 278 278 277 277 276 276 275 275 274 274 274 273 273 273 273 272 272 272 271 271 270 270
284 285 285 285 286 286 287 288 289 289 289 289 288 288 287 287 287 287 287 286 285 284 283 282 281 280 279 279 281 284 286 287 287 288 288 287 288 288 287 285 284 284 284 284 284 284 284 285 284 284 284 284 284 283 283 282 282 281 281 280 280 280 280 281 280 280 280 279 279 278 278 277 277 276 276 275 275 275 275 274 274 273 273 272 271 270
284 284 285 285 286 287 287 288 289 289 289 288 287 286 286 286 287 286 286 284 283 282 281 280 280 280 280 281 283 285 287 288 288 288 288 287 286 286 285 284 283 283 284 284 285 285 285 286 286 286 286 285 285 284 284 283 282 282 282 282 282 282 282 282 282 282 281 281 280 280 279 279 279 278 278 277 277 277 277 276 276 275 274 274 273 272
284 284 285 285 286 286 287 288 290 290 289 287 286 285 286 286 286 285 284 283 282 281 280 279 280 281 283 284 286 287 288 288 288 288 288 286 285 284 284 283 283 283 283 284 285 286 286 287 287 287 286 285 285 284 284 283 283 283 283 284 284 284 283 283 283 282 282 282 282 281 281 281 280 280 279 279 279 278 278 278 277 277 276 275 274 273
283 283 284 284 284 285 286 288 289 290 288 287 286 285 285 285 284 283 283 282 281 280 279 279 281 283 285 286 287 288 289 288 287 286 286 285 283 283 283 283 283 283 283 285 286 287 287 287 287 286 285 284 284 284 284 284 284 284 285 285 285 284 284 283 283 283 283 283 283 282 282 282 281 281 280 280 280 280 279 279 279 278 278 277 276 275
282 282 282 283 283 284 285 287 288 288 287 285 284 283 282 282 281 281 281 281 281 280 281 282 283 284 286 287 288 289 288 287 286 284 284 283 282 282 283 283 283 283 284 285 286 287 287 286 285 284 282 282 282 283 283 284 284 285 285 285 285 284 284 284 284 284 284 284 284 283 283 283 282 282 281 281 281 280 280 280 280 280 280 279 278 277
281 281 281 282 283 284 285 286 287 287 286 284 283 282 281 281 281 281 281 282 282 282 283 283 284 285 286 287 288 288 288 286 285 283 282 282 282 282 283 283 283 283 284 285 286 286 285 284 282 281 280 280 280 281 282 283 284 285 285 284 284 284 285 285 286 286 286 286 285 285 284 284 283 282 282 282 281 281 281 281 281 281 281 280 279 278
281 281 281 282 282 283 284 285 285 285 284 283 283 282 282 282 282 282 283 283 283 284 284 285 285 286 287 288 289 288 287 285 284 282 281 281 281 281 282 282 282 282 283 284 285 284 283 281 280 279 278 278 279 280 282 283 283 284 284 284 284 285 286 286 287 287 287 287 287 286 286 285 284 283 283 282 282 282 281 281 281 281 281 280 280 278
281 281 281 281 281 282 282 283 282 282 282 283 283 283 284 284 284 284 283 283 284 284 285 286 286 287 288 289 289 288 286 284 282 280 279 279 280 280 280 281 281 281 282 283 283 282 280 279 278 277 277 278 279 280 281 282 283 283 283 284 284 285 286 287 288 288 289 289 288 288 287 286 285 285 284 283 283 282 282 282 281 281 281 281 280 279
282 282 282 282 282 282 281 281 281 282 283 284 284 284 284 284 284 284 284 284 285 285 285 285 286 287 288 288 288 287 286 284 281 279 277 277 278 278 279 279 280 280 280 281 281 280 278 276 276 277 277 278 279 280 281 282 282 283 283 284 284 285 286 288 289 290 290 290 290 290 289 288 287 286 286 285 284 284 283 283 282 282 281 281 280 279
281 282 283 284 284 283 281 280 281 282 284 285 285 286 285 285 284 284 284 285 285 285 285 285 286 288 289 289 288 287 285 283 281 279 277 277 276 277 277 278 279 279 279 280 280 278 276 275 275 276 277 278 280 280 281 281 282 282 283 283 284 285 286 288 289 291 291 292 291 291 290 290 289 289 288 287 287 286 286 285 284 283 282 281 280 279
280 281 282 283 284 283 282 281 282 283 284 285 286 286 285 285 284 284 284 285 285 285 284 285 286 287 288 288 288 286 284 282 280 278 276 275 274 275 276 277 277 277 279 279 279 278 276 275 275 277 278 278 279 280 281 281 281 282 282 283 284 285 286 288 290 291 292 292 292 291 291 291 290 290 290 289 289 289 288 287 286 285 283 281 280 279
279 279 280 281 282 283 283 282 283 284 285 286 286 286 285 285 284 284 285 285 285 284 284 284 285 286 287 287 287 285 283 281 279 277 274 273 273 274 275 275 276 277 278 279 279 278 276 276 276 277 278 278 278 279 280 281 282 282 283 283 284 285 286 287 289 290 291 291 291 291 291 291 291 291 291 291 291 290 289 289 288 286 284 282 281 280
277 277 277 278 280 281 282 283 284 284 285 286 286 286 286 285 285 285 285 285 284 284 284 284 285 285 285 285 285 283 282 281 279 277 274 272 272 273 274 275 277 278 278 278 278 278 277 277 277 277 278 278 278 279 280 281 282 282 283 283 284 284 285 286 288 289 290 290 290 290 290 290 291 291 291 292 292 291 291 290 289 288 286 284 282 281
276 275 275 276 277 279 281 282 284 285 285 286 287 287 287 287 286 285 285 285 284 284 284 284 284 283 283 282 282 281 281 281 280 278 275 274 274 275 275 276 278 279 278 277 276 276 276 277 277 278 278 278 278 280 281 281 282 282 283 283 284 285 285 286 287 289 289 290 289 289 290 290 291 292 292 293 293 292 292 291 290 289 287 286 284 283
277 277 276 276 276 278 280 282 283 284 285 286 287 288 288 288 287 286 285 285 285 285 285 284 284 282 281 280 280 280 280 280 279 278 276 275 275 276 277 278 279 279 279 277 276 275 275 275 276 277 278 278 279 280 281 282 282 282 283 283 284 285 286 287 288 288 289 289 289 289 289 290 290 291 292 293 293 293 293 292 291 290 289 288 287 285
280 279 278 277 277 278 280 281 282 284 285 287 287 288 288 288 287 286 285 285 285 285 286 285 284 283 282 282 281 281 280 280 278 277 276 276 276 277 277 278 278 279 279 278 276 275 275 275 276 277 277 278 279 280 281 282 282 282 283 283 284 285 286 287 288 288 288 288 288 288 288 288 289 290 291 292 293 293 293 293 292 292 291 290 290 288
281 280 279 278 278 279 280 281 282 284 285 287 288 288 288 288 287 286 286 286 286 286 286 286 285 285 284 283 283 281 280 279 278 277 276 275 275 276 277 277 277 277 278 277 277 276 276 276 276 276 277 278 278 279 280 281 281 282 283 283 284 285 286 286 287 287 287 287 287 287 287 287 288 289 290 291 292 292 293 292 292 293 293 293 292 291
283 282 281 281 280 280 281 282 283 285 286 287 288 289 288 287 287 287 287 287 287 287 287 286 285 284 283 282 281 280 280 279 278 277 276 275 274 275 275 276 276 276 276 276 276 276 277 277 277 276 277 277 278 279 279 280 281 282 283 283 284 284 285 286 286 287 287 286 286 286 286 286 287 288 289 290 291 291 292 292 293 293 294 294 294 293
286 285 284 283 283 283 283 284 285 286 287 288 289 289 288 288 288 288 289 289 289 289 289 288 287 285 283 281 280 279 279 279 278 277 276 275 273 273 274 274 274 274 274 274 275 275 276 277 277 277 276 277 277 278 279 280 281 281 282 282 283 284 285 285 286 286 286 285 285 284 285 285 286 286 287 288 289 290 291 291 292 293 294 294 294 294
284 284 284 284 285 285 286 286 287 288 288 289 289 289 289 289 289 290 289 289 288 289 289 289 288 286 284 282 281 281 280 280 279 278 277 275 273 272 272 273 272 272 272 272 273 273 274 275 276 276 277 277 277 277 278 279 280 280 281 282 283 284 284 285 285 285 285 285 284 283 283 284 284 285 286 287 288 289 290 291 292 293 294 294 295 295
282 282 284 285 286 287 288 288 289 289 289 289 289 289 290 290 290 290 289 289 289 289 290 290 289 288 286 284 283 282 282 281 280 279 277 276 274 272 271 271 271 271 270 270 270 271 272 273 274 275 276 277 277 278 278 279 279 280 281 282 283 283 284 284 284 285 284 284 283 283 283 283 283 284 285 286 287 288 288 289 291 292 294 295 295 296
281 282 284 285 287 288 289 289 290 290 290 290 290 290 291 291 291 290 290 290 290 290 291 290 289 288 287 286 285 283 282 281 280 279 278 276 274 273 272 271 270 270 270 269 269 269 270 271 272 273 274 276 277 278 279 279 279 279 280 281 282 282 283 283 284 284 283 283 283 282 282 282 282 283 283 284 285 286 287 288 289 291 293 294 295 296
282 283 285 286 288 289 290 290 291 291 291 291 291 291 291 291 290 290 290 290 290 290 290 290 289 288 287 286 285 284 283 282 280 279 278 277 275 274 272 271 270 270 269 269 269 269 269 270 271 273 274 275 276 278 278 279 279 279 279 280 280 281 282 282 282 282 282 282 282 281 281 281 281 281 282 283 284 284 285 286 287 289 290 291 293 295
284 284 285 287 288 290 291 291 292 292 293 292 291 291 290 290 290 290 290 290 291 291 290 290 290 289 287 286 285 284 283 282 281 280 279 278 276 275 274 273 272 271 270 270 270 270 270 270 271 272 274 275 277 278 279 279 279 279 279 279 280 281 282 281 281 281 281 281 281 281 280 280 280 281 281 282 282 283 283 284 285 286 287 288 289 291
284 284 286 287 289 291 292 293 293 293 293 293 292 291 291 291 291 290 290 290 290 290 290 290 289 288 287 286 285 284 283 283 282 281 280 279 278 277 276 275 274 273 272 271 271 271 271 271 272 273 274 275 276 278 279 279 279 279 278 278 279 280 280 280 280 280 280 280 280 280 280 280 280 280 280 280 281 281 282 282 282 282 283 284 285 287
284 284 286 288 290 292 293 293 293 293 293 293 292 291 291 291 290 290 289 289 289 289 289 289 288 288 286 285 285 285 284 283 283 282 281 280 279 278 277 276 275 274 273 273 273 273 274 274 274 274 275 276 276 277 278 278 278 278 278 277 277 277 277 278 279 279 279 279 279 279 279 279 279 279 279 278 279 279 280 280 280 280 279 279 280 282
284 286 287 289 291 292 292 292 293 293 292 292 292 291 291 290 290 289 288 288 288 288 288 289 288 288 287 286 286 286 285 284 283 283 282 281 280 279 278 277 276 275 274 273 273 274 275 275 276 276 276 276 276 277 277 277 277 277 276 276 276 275 276 277 277 277 277 278 278 278 278 278 278 277 277 277 277 278 278 278 278 278 277 276 275 277
285 286 288 289 290 290 290 291 291 292 292 291 291 291 290 290 289 289 288 288 288 288 289 289 288 288 287 287 287 286 285 285 283 282 281 280 280 279 278 277 276 275 274 274 274 274 274 275 276 277 277 277 276 276 275 275 275 275 275 275 275 275 276 276 276 276 276 277 277 278 278 277 277 276 275 275 275 276 276 276 276 276 275 274 272 272
284 286 287 288 289 289 289 290 290 291 291 291 290 290 290 290 290 289 289 289 289 289 289 289 288 287 287 286 286 286 285 285 284 283 281 280 279 278 277 276 275 274 274 273 273 273 273 273 274 275 275 276 276 275 274 273 273 273 273 273 274 274 275 275 275 276 276 276 276 276 276 276 275 274 273 273 273 273 273 273 273 273 272 271 269 268
283 285 286 287 288 288 288 289 289 290 289 289 289 290 290 290 290 290 290 289 289 289 289 289 288 287 286 286 286 285 285 285 284 283 282 280 279 277 276 275 274 273 273 272 272 272 272 272 272 272 273 273 274 274 273 272 271 271 272 272 273 273 274 275 275 275 275 275 275 275 275 274 273 272 271 271 271 271 271 271 271 271 270 268 267 265
283 285 285 286 286 287 287 288 288 288 288 288 289 290 291 291 291 290 290 289 289 289 288 287 287 286 286 286 285 285 285 284 284 283 282 280 279 278 277 275 274 274 273 272 272 272 272 272 271 271 271 271 271 272 272 271 271 271 271 271 272 273 273 274 274 275 275 274 274 273 272 271 270 270 269 269 269 268 268 269 269 268 267 266 264 262
284 285 285 285 285 285 286 287 287 287 288 288 289 291 292 292 292 291 290 290 289 288 288 287 287 286 286 286 286 285 285 284 284 283 281 280 279 278 278 276 276 275 274 274 273 273 273 273 273 271 270 270 269 270 270 270 270 270 270 271 271 272 272 273 273 273 273 273 273 272 271 270 268 267 267 266 266 265 266 266 266 265 264 263 261 259
285 285 285 284 284 284 285 286 287 287 288 290 291 293 294 294 293 293 292 291 290 290 289 289 288 287 287 286 286 286 285 285 284 283 282 281 280 279 278 277 276 275 275 275 275 275 275 275 275 274 272 270 268 268 268 269 269 270 270 270 270 271 271 272 272 272 272 272 271 270 269 268 266 265 264 263 263 263 262 263 263 262 261 260 259 257